Wind_Speed
30 30 30 29 29 30 33 36 38 39 38 37 40 45 49 51 56 59 58 56 58 61 62 63 66 65 64 63 60 58 58 58 58 56 54 51 50 49 48 46 45 42 39 38 40 43 44 46 46 44 41 37 31 25 22 23 25 27 27 27 27 26 23 20 19 19 17 15 15 16 17 19 22 25 28 30 32 32 32 30 29 27 26 27 27 27
32 32 31 31 31 31 34 37 39 41 39 38 39 43 47 50 53 58 58 56 57 60 61 63 65 64 63 63 60 58 59 59 58 56 54 51 50 50 48 46 45 42 41 42 44 45 45 46 45 43 39 32 25 21 21 24 27 26 25 25 25 24 22 19 19 19 17 16 17 18 19 22 24 27 29 31 31 32 32 30 29 27 27 28 28 26
33 33 32 32 32 34 35 37 39 41 40 39 38 41 45 47 50 55 57 55 55 60 62 63 64 63 63 62 59 59 60 59 57 57 55 52 51 50 49 47 46 45 44 45 46 46 47 47 45 40 34 27 23 22 23 25 26 24 23 24 23 21 20 19 19 20 19 18 19 21 23 25 26 28 29 30 31 31 31 30 29 28 28 29 27 24
34 33 32 32 34 35 36 37 37 39 40 38 37 38 41 44 48 53 55 54 55 60 62 63 63 62 62 62 60 60 61 59 57 57 55 53 52 51 49 49 48 47 46 46 46 46 47 46 41 34 28 23 21 22 23 24 24 23 23 22 21 20 20 20 21 21 20 20 21 23 24 25 26 26 27 28 30 31 31 31 29 29 30 29 26 22
34 33 32 33 35 37 38 38 37 37 38 37 35 35 38 42 47 51 52 53 56 60 61 61 61 61 62 62 60 60 62 60 59 59 57 55 54 52 51 50 49 48 47 47 46 46 45 41 35 29 24 21 21 20 21 23 24 23 22 21 21 20 20 21 22 22 22 21 21 22 23 23 23 23 24 26 28 30 31 31 31 30 29 26 23 20
34 32 32 34 35 38 40 38 37 36 36 35 33 32 35 40 46 49 50 51 55 58 58 58 59 60 62 62 60 61 62 61 60 59 58 56 55 54 53 52 51 50 49 48 47 45 42 38 33 27 23 22 21 20 22 24 24 23 23 22 22 20 20 22 23 24 22 21 20 21 21 21 21 22 24 27 28 29 30 30 30 28 26 23 21 19
32 31 31 34 36 39 40 37 34 34 35 34 29 29 33 39 45 48 48 50 55 56 55 56 58 59 62 62 61 61 62 61 61 60 58 57 56 56 55 54 53 52 51 49 48 46 43 39 33 26 23 22 21 21 24 25 24 24 25 24 22 20 21 23 25 24 23 21 20 20 20 21 21 23 25 26 27 28 29 28 27 25 23 21 20 19
30 30 31 34 37 39 38 33 29 31 34 31 25 27 32 37 43 46 46 48 51 53 54 57 58 59 62 62 60 61 62 62 62 61 59 58 58 57 56 55 55 53 52 49 48 46 42 37 31 25 24 23 23 25 26 25 25 26 27 25 22 20 21 24 25 24 23 22 20 19 20 21 23 23 24 25 26 27 27 26 24 22 21 20 20 20
27 30 32 34 36 34 32 29 26 29 32 27 23 26 29 35 41 42 42 43 44 48 54 56 57 59 62 62 61 62 63 63 63 61 59 59 59 58 57 57 56 53 52 49 47 44 38 32 27 24 25 25 26 26 25 26 27 28 28 26 23 21 22 25 26 25 24 23 20 19 20 21 22 22 23 24 25 25 24 22 20 20 20 20 20 21
27 31 31 30 32 30 27 26 26 29 29 23 21 25 28 33 39 40 40 38 38 47 55 55 55 59 62 63 63 64 65 64 63 61 60 60 59 59 59 58 55 53 51 49 47 43 37 31 26 25 27 28 27 26 27 29 29 29 29 26 23 22 24 26 26 25 25 23 20 19 19 20 20 20 22 23 23 22 21 19 18 19 19 20 20 21
27 29 28 27 28 29 28 26 27 27 25 21 20 23 27 34 40 41 39 34 37 51 55 52 54 59 62 63 63 64 65 64 63 62 62 62 61 60 60 58 55 53 50 48 45 41 36 32 30 31 31 29 27 27 29 30 30 30 29 26 23 23 25 27 26 25 24 22 20 18 18 18 18 19 20 20 20 19 17 16 17 18 19 19 20 20
25 26 26 25 24 25 27 27 27 25 23 21 20 22 29 37 41 42 38 34 42 53 51 48 54 59 62 63 64 64 64 63 63 63 63 62 62 61 59 57 55 53 49 46 43 39 35 33 33 33 31 28 27 28 30 30 30 29 27 25 25 25 25 26 25 24 24 22 19 18 17 17 17 17 18 18 17 16 15 16 17 18 19 18 18 18
23 22 24 23 20 20 23 25 27 25 23 21 21 26 34 40 42 42 38 35 45 51 46 45 52 59 62 62 63 65 64 63 62 62 63 63 62 60 58 57 55 51 48 44 40 36 34 33 34 32 28 26 26 28 29 30 30 28 27 26 26 25 25 25 24 25 24 21 19 17 16 15 16 16 16 15 15 14 15 17 18 18 17 16 16 17
22 21 22 21 19 18 19 22 24 24 22 20 24 31 38 42 43 43 37 34 43 46 43 44 51 59 62 61 62 64 63 63 63 62 63 63 61 59 57 55 53 49 45 41 37 34 34 34 32 29 26 26 26 26 28 29 29 28 28 28 27 25 25 24 24 25 22 20 19 17 15 14 15 15 15 14 14 14 16 17 17 16 15 15 16 16
18 20 21 18 16 15 13 15 19 20 19 19 25 33 39 42 43 40 32 32 41 42 41 46 52 58 60 59 60 62 63 63 63 63 62 62 61 58 56 54 50 46 42 37 34 34 33 32 30 27 26 25 25 26 28 29 29 29 29 29 27 25 24 23 24 24 22 20 19 16 14 14 14 14 14 14 15 16 17 16 15 15 15 15 16 16
17 18 17 13 10 9 6 10 15 17 18 22 29 36 40 43 40 30 24 31 39 39 41 48 52 55 58 58 58 60 62 62 61 62 61 60 60 57 55 52 48 45 41 37 35 34 33 32 29 27 26 25 25 26 27 28 30 30 30 29 27 25 23 23 24 23 22 21 18 15 14 15 15 15 15 15 16 17 16 14 14 14 14 15 16 16
17 16 12 7 4 5 7 14 18 19 19 25 34 39 41 43 35 21 21 34 39 38 42 48 50 52 55 55 56 58 60 59 59 59 58 58 57 55 53 50 47 45 42 38 36 34 32 31 29 27 25 24 25 26 27 28 31 31 31 29 27 25 24 23 23 23 22 20 17 15 16 16 16 16 16 16 17 18 16 13 13 14 14 14 15 16
16 12 8 1 5 7 9 15 19 20 20 26 35 40 43 42 29 17 23 34 37 36 41 47 48 49 50 51 54 55 56 57 57 55 55 55 54 53 50 48 46 45 42 38 36 35 34 32 30 27 25 25 25 25 26 30 33 33 32 30 29 27 25 23 24 23 21 19 17 17 17 17 18 17 16 17 18 18 15 13 13 13 13 14 16 16
13 8 2 3 5 6 11 17 20 22 24 28 35 41 44 35 22 20 26 30 33 35 39 45 46 45 45 47 51 51 51 53 54 53 53 54 53 53 51 48 47 45 42 39 37 37 35 32 30 28 26 25 25 26 30 33 36 35 32 32 30 29 27 26 25 23 20 18 18 18 19 19 18 17 17 18 18 17 14 13 13 13 13 15 16 17
10 5 2 3 3 6 14 20 23 26 30 32 38 44 40 27 19 23 27 27 31 35 38 42 43 42 42 46 49 48 47 49 50 50 51 52 52 52 51 50 49 47 44 41 39 37 34 31 29 28 26 25 25 29 34 37 37 35 33 33 32 30 28 26 25 22 20 19 19 20 20 19 18 17 18 19 18 16 14 14 13 13 14 16 17 17
9 5 1 1 6 13 17 20 22 29 33 34 41 43 32 21 22 25 26 25 28 34 33 31 36 41 40 42 45 45 46 46 46 48 48 49 49 49 50 51 51 49 45 42 39 37 34 31 29 29 28 28 29 33 37 38 37 36 35 34 32 30 28 26 24 22 20 20 20 20 19 18 18 18 19 19 17 15 15 14 14 14 15 17 17 16
11 7 4 2 13 17 19 19 22 31 33 32 41 38 22 19 25 26 25 22 26 32 26 19 30 38 36 37 40 41 43 44 45 46 46 46 46 47 49 50 50 48 44 41 39 35 32 30 30 31 31 32 34 37 38 38 37 36 35 34 32 29 27 25 24 22 20 19 19 18 18 18 19 20 20 18 16 15 15 14 14 15 16 18 17 15
11 7 2 6 13 17 21 20 23 34 29 26 40 34 18 24 30 26 24 21 24 30 24 18 27 32 30 32 37 39 41 42 42 44 44 43 44 44 47 48 47 46 43 40 37 34 32 31 32 34 34 34 36 38 38 38 37 36 35 33 31 29 27 26 25 23 20 18 17 17 18 19 20 21 19 17 15 15 15 14 14 15 17 18 16 15
9 5 3 11 14 16 21 18 24 34 25 23 38 31 22 30 32 26 24 21 25 28 23 20 24 26 26 28 32 35 36 37 39 40 40 40 42 43 45 47 46 45 41 38 36 35 34 34 36 37 37 36 37 38 38 38 37 36 34 33 31 29 28 27 25 22 19 17 16 17 18 18 20 20 19 17 16 16 15 14 15 16 18 18 15 15
7 6 5 12 14 15 18 17 26 32 21 23 36 28 27 32 29 28 25 21 26 28 24 23 24 25 26 26 28 31 31 32 34 36 37 38 40 42 44 44 45 44 42 40 38 37 37 38 39 39 38 37 37 38 37 36 36 35 34 33 30 29 28 26 24 21 19 17 17 17 18 19 20 20 19 17 17 16 15 15 15 17 19 18 15 15
5 5 4 11 13 12 14 19 30 29 19 25 33 29 32 30 27 31 28 23 28 28 24 26 26 25 25 24 25 27 26 26 28 31 34 35 37 39 39 39 41 42 42 40 38 37 38 39 40 40 38 37 37 36 36 35 34 34 33 32 30 29 28 26 22 20 19 19 18 17 18 19 20 21 19 18 17 16 15 15 16 17 18 17 15 16
2 3 4 9 12 11 13 23 31 23 17 27 33 33 32 26 27 35 32 28 29 27 24 27 27 24 23 23 24 24 23 23 24 27 30 32 33 34 34 35 37 39 40 39 38 38 39 40 40 39 38 37 36 36 35 35 34 34 33 31 30 29 27 25 22 21 20 19 18 18 19 20 21 21 20 18 18 17 15 15 17 18 18 17 17 17
1 2 4 7 12 12 17 30 31 20 18 29 34 34 28 24 29 36 34 31 30 27 24 25 26 25 23 23 24 23 22 21 21 23 25 28 30 30 31 33 35 37 39 38 38 39 39 39 39 39 38 37 36 36 36 36 35 34 33 31 30 29 27 25 23 22 21 19 19 19 20 21 22 21 20 19 18 17 16 16 18 18 18 18 19 18
1 3 4 8 14 14 19 34 34 21 20 30 35 33 25 22 30 35 34 31 30 28 24 23 25 25 23 23 24 22 20 19 20 22 23 25 29 30 32 33 34 37 38 38 38 38 38 38 38 38 38 38 37 37 37 36 36 35 33 31 30 29 28 26 24 23 21 20 20 21 22 23 22 21 19 19 19 18 17 18 19 18 18 19 20 19
4 4 6 11 16 14 17 34 36 21 20 30 35 31 23 22 30 34 32 30 29 28 25 23 25 25 22 24 24 21 19 18 19 22 23 26 30 33 34 34 35 36 37 37 36 37 38 38 38 39 39 39 39 39 38 37 36 35 33 32 31 30 28 27 25 23 22 21 22 23 24 23 22 21 20 20 20 19 18 18 19 19 19 20 20 20
5 4 8 14 17 15 18 32 35 24 21 28 33 29 22 23 30 34 31 29 29 28 27 25 24 23 24 25 24 22 20 19 19 21 24 29 33 34 35 35 36 36 35 35 35 36 38 39 40 40 41 41 41 39 38 37 36 36 34 33 31 29 29 28 26 24 23 23 24 25 24 23 22 21 21 21 20 19 19 19 19 20 20 20 20 20
4 5 12 19 20 18 21 30 32 25 22 27 31 28 21 21 30 33 30 28 28 27 27 26 23 22 24 25 25 24 22 20 20 23 26 30 32 33 33 33 34 35 34 34 34 35 37 38 40 42 43 43 41 40 40 38 37 36 35 33 31 30 30 29 27 26 25 25 26 26 25 24 23 23 22 22 21 20 20 20 20 21 21 21 20 21
4 8 19 25 22 18 21 28 29 24 22 28 32 29 20 18 27 32 28 25 26 25 26 26 23 22 25 26 26 26 24 23 23 24 26 28 29 30 31 30 31 33 34 35 35 36 37 38 41 42 43 43 41 41 40 39 38 37 36 34 33 32 31 30 28 27 27 27 28 27 26 25 24 24 24 23 21 21 21 21 21 22 22 21 21 21
4 13 25 27 20 17 20 26 28 23 23 28 32 28 19 16 24 30 27 24 23 24 25 26 23 23 25 26 27 27 26 26 26 26 26 27 28 29 31 31 31 32 33 35 36 37 38 39 40 41 41 42 41 40 40 39 39 38 37 36 34 33 32 31 29 28 28 29 28 27 27 26 26 26 25 23 22 22 22 22 22 22 22 21 21 21
6 18 27 24 17 17 20 25 25 22 22 28 32 27 19 16 20 25 27 25 23 22 23 24 24 23 23 25 27 27 25 25 27 27 27 26 26 28 31 32 32 32 33 34 36 37 38 39 40 41 41 41 41 40 40 40 39 39 38 35 33 32 30 29 28 28 29 29 28 27 27 27 27 27 26 24 23 22 23 23 23 23 22 21 21 21
10 19 27 25 18 18 21 23 22 21 22 28 32 28 20 16 15 19 23 23 22 21 20 22 25 23 22 24 26 26 24 22 23 25 24 24 26 27 29 32 33 33 32 33 34 36 36 37 38 39 40 41 40 40 40 40 40 39 36 33 30 27 26 27 27 28 28 28 28 28 28 28 29 28 26 24 23 23 23 24 24 23 22 21 21 22
13 19 28 27 18 17 21 21 20 21 22 28 32 28 23 19 15 16 18 19 21 22 20 22 26 25 23 24 25 25 24 22 22 22 22 24 26 27 27 30 33 34 34 33 33 34 34 34 35 36 36 37 38 39 40 40 40 37 34 31 28 26 26 27 28 28 28 29 29 28 29 29 29 27 26 25 24 23 23 24 24 23 22 21 22 23
15 19 26 26 17 16 20 21 20 22 25 29 30 27 23 22 19 17 17 19 21 23 21 21 24 26 26 26 26 27 27 25 24 24 23 25 28 27 24 25 27 31 34 34 34 34 34 34 34 35 36 36 37 37 37 37 36 34 32 30 29 29 29 30 30 30 30 30 30 29 29 29 29 28 26 25 24 24 24 25 24 23 22 21 22 23
17 19 21 20 16 16 21 20 20 26 29 26 24 24 24 23 22 20 19 19 20 21 22 22 23 26 28 28 29 29 27 27 28 26 26 28 30 28 25 23 23 25 27 29 31 31 31 31 32 33 33 33 33 32 32 33 33 32 31 31 31 31 31 31 32 32 32 31 29 30 30 31 30 28 27 27 26 26 25 25 25 24 22 22 23 24
16 17 17 17 16 18 21 19 19 28 30 21 17 24 27 23 22 21 18 16 15 16 20 21 22 27 30 31 32 27 23 28 30 28 30 34 32 28 26 25 24 24 24 25 26 26 27 28 29 31 31 31 30 30 31 32 32 32 32 32 32 31 31 31 32 32 31 29 28 30 32 32 30 29 29 29 29 27 26 26 25 25 24 23 23 25
11 13 15 16 16 19 21 19 18 25 26 19 18 26 27 22 20 19 16 14 13 14 16 17 18 22 25 29 32 24 20 30 34 30 32 34 30 26 25 24 24 25 24 25 25 25 25 26 28 30 31 31 31 31 32 33 33 33 33 32 31 31 30 30 31 31 30 28 29 31 32 31 31 31 32 32 30 28 28 27 26 26 25 24 24 26
9 12 17 18 17 20 21 19 18 20 21 20 22 25 24 20 18 16 12 11 13 14 14 15 16 15 17 23 26 19 17 26 29 27 27 27 24 24 24 23 22 22 22 23 23 23 24 24 26 27 29 30 32 33 33 33 32 32 32 32 31 31 30 29 29 29 29 29 30 32 32 32 33 33 33 33 31 29 28 28 27 27 26 26 26 27
8 11 17 19 19 20 20 18 18 19 20 21 21 22 23 20 16 15 11 10 13 13 11 11 14 15 16 17 15 12 13 18 20 20 21 20 20 22 23 22 21 20 19 20 20 21 22 23 23 24 26 28 31 32 31 31 31 31 31 30 29 29 29 29 28 27 27 29 31 31 32 33 34 35 35 34 31 30 30 30 29 29 29 28 28 29
8 10 16 19 19 20 19 18 18 18 19 20 17 19 23 19 13 13 12 10 11 10 7 8 12 14 15 10 6 7 10 12 14 15 15 15 16 18 20 21 21 19 19 19 19 20 21 20 20 21 24 26 27 28 28 28 28 29 30 30 29 28 27 27 26 25 26 30 32 33 34 35 36 36 35 33 32 31 32 32 31 31 31 30 30 31
8 11 14 17 19 19 18 18 19 19 20 20 15 14 19 17 11 13 13 8 7 6 6 8 9 8 7 4 5 6 7 8 10 12 12 12 14 16 19 21 22 21 21 20 20 20 19 18 18 19 21 23 24 26 27 27 25 25 27 28 28 26 24 23 23 24 28 32 34 34 35 36 36 36 35 34 34 34 34 34 33 33 33 32 31 31
9 12 14 16 18 20 19 19 21 20 20 20 15 12 16 16 11 12 12 7 5 5 5 6 8 7 6 6 6 6 5 5 6 9 10 12 14 15 17 19 19 19 19 19 20 21 20 18 18 18 19 20 21 23 26 26 24 23 24 25 24 23 23 23 23 25 28 32 33 34 35 36 36 36 36 36 36 36 36 35 33 33 33 33 32 31
11 12 14 15 17 17 17 19 23 23 22 20 16 13 15 16 12 11 11 7 5 6 6 6 7 7 6 6 5 3 2 3 5 7 10 12 14 15 17 19 18 16 14 16 19 21 21 20 18 17 17 18 19 20 22 23 22 22 24 25 24 22 22 23 24 25 27 29 30 32 34 36 36 37 37 36 36 37 36 34 32 32 32 32 31 30
14 14 14 15 16 15 15 17 20 22 22 22 18 14 13 13 12 12 11 7 5 7 7 7 8 9 9 8 6 4 4 5 5 6 8 10 12 13 15 18 19 17 13 13 15 17 18 17 15 14 14 15 16 17 18 20 20 21 23 25 23 21 20 21 23 25 26 27 27 29 31 33 34 36 36 34 34 36 35 32 31 30 30 30 30 30
12 13 13 15 16 15 15 16 17 19 21 23 21 16 13 13 12 13 12 10 9 10 10 9 10 11 12 10 6 4 6 8 8 7 5 5 8 12 12 13 17 18 16 13 13 13 12 10 10 10 11 13 14 15 16 17 18 19 21 22 22 21 20 20 22 23 23 24 24 26 27 29 33 35 34 32 32 33 33 31 30 29 29 30 30 31
12 12 11 13 15 16 16 16 16 17 20 21 20 17 15 14 14 14 13 11 12 13 12 12 12 12 12 11 7 3 2 4 7 9 7 4 3 6 10 12 15 17 16 13 13 13 11 8 9 11 13 14 15 16 16 16 17 17 17 18 18 19 19 20 20 19 19 20 21 21 21 25 31 35 33 30 30 31 30 30 29 30 30 31 31 31
15 15 13 12 13 15 17 17 17 18 19 18 16 16 15 15 15 15 13 11 13 14 12 10 12 14 14 12 10 7 3 0 2 5 8 8 6 5 6 8 11 14 16 15 14 13 11 9 10 12 15 17 17 17 17 17 17 16 16 15 16 16 17 18 17 16 16 17 17 17 16 18 25 31 31 27 27 29 30 29 29 30 30 31 31 32
Wind_Direction
292 294 295 292 288 286 283 280 277 272 267 261 250 242 238 230 223 222 219 214 215 216 214 215 218 216 213 209 206 207 209 211 210 209 210 210 209 212 213 212 210 209 208 209 208 208 212 215 216 218 219 221 220 218 222 227 233 237 239 242 244 245 244 240 239 245 248 242 231 227 230 235 236 235 234 236 239 243 245 247 251 256 262 266 269 274
289 293 294 290 284 283 283 280 277 274 269 264 256 244 237 232 223 219 218 214 213 215 212 215 218 215 212 208 203 205 207 208 208 207 208 208 208 210 211 211 210 208 208 207 207 210 214 215 216 217 216 215 212 212 221 229 232 234 236 239 241 243 245 242 239 240 242 237 226 220 223 228 230 231 233 235 238 242 244 247 251 256 262 265 270 275
288 292 291 286 282 281 283 281 276 273 270 264 259 249 237 231 224 218 217 214 212 213 211 214 217 213 211 207 201 203 206 206 206 205 206 207 207 208 208 210 209 208 208 208 209 211 214 216 217 216 213 210 208 213 222 229 232 234 234 236 239 242 244 243 240 238 237 234 225 219 222 226 228 230 233 234 236 240 244 247 252 257 261 265 271 275
289 290 286 283 281 281 283 280 273 269 268 264 260 253 238 229 224 218 214 213 212 211 210 213 215 211 209 206 199 202 205 203 203 203 204 205 206 207 207 208 208 209 209 210 211 213 215 217 216 213 210 208 210 217 226 231 233 234 234 235 238 241 243 242 241 237 235 233 227 224 227 230 232 235 236 236 238 241 244 247 252 258 262 268 274 277
290 287 284 282 280 279 280 279 272 265 264 264 260 253 239 227 221 217 213 212 211 210 209 212 214 209 207 204 197 200 203 200 200 201 201 203 205 206 206 206 208 209 211 212 215 217 218 218 216 212 208 209 213 221 230 232 233 235 235 237 239 240 240 240 239 237 235 234 231 231 234 237 240 241 240 240 241 244 246 249 254 260 266 272 277 279
290 287 284 281 277 277 279 278 273 264 261 262 259 253 239 224 218 215 211 210 210 209 208 212 213 207 206 202 195 199 202 199 199 200 200 201 204 206 207 206 206 208 210 213 217 220 220 219 217 212 208 211 217 225 230 231 232 234 236 237 237 238 237 237 237 237 236 235 233 232 235 239 240 240 239 241 244 246 249 253 259 266 271 275 278 279
290 286 280 278 277 278 279 280 275 265 261 260 257 253 238 221 215 213 210 209 209 207 207 212 211 205 204 201 193 197 201 198 198 198 198 201 203 206 207 207 206 208 210 212 216 219 220 220 216 212 210 214 220 226 229 229 229 231 234 235 235 235 234 233 234 236 235 234 233 232 232 234 234 236 240 244 247 250 254 259 265 270 274 277 279 279
289 282 279 279 279 279 279 281 275 263 261 258 255 251 235 218 212 210 208 208 208 206 206 209 208 203 202 197 191 196 200 198 197 197 197 200 203 205 207 208 207 208 210 213 216 218 219 218 214 211 213 217 222 227 227 225 224 227 232 232 231 232 231 229 231 233 234 233 232 231 231 233 236 240 245 248 251 255 260 265 270 273 276 279 280 279
285 280 281 281 279 279 279 277 267 259 259 258 253 246 229 212 207 205 205 206 206 206 205 207 207 202 199 194 190 195 199 198 197 196 196 200 204 205 207 209 209 208 211 214 217 219 219 216 213 212 216 221 224 226 224 220 220 224 228 229 227 228 228 226 227 230 232 233 232 230 231 234 240 245 248 252 255 258 263 268 271 275 277 279 280 281
282 280 282 282 279 274 271 268 262 259 259 257 252 240 219 204 200 198 198 198 204 206 202 204 206 200 197 194 190 194 198 198 196 195 197 201 203 205 207 209 210 210 211 213 217 219 219 217 216 218 221 222 222 221 219 216 217 221 226 226 224 225 225 224 224 228 231 232 230 230 231 235 241 245 249 253 256 259 263 267 271 274 275 278 281 284
282 281 284 287 280 269 262 259 258 259 257 252 245 229 206 195 194 193 190 191 204 204 199 202 204 199 197 193 190 193 197 196 195 195 197 200 203 205 206 208 210 212 212 213 216 217 218 216 216 219 220 219 217 216 214 212 215 220 224 225 223 223 224 223 223 226 229 230 228 228 230 235 240 244 248 251 253 256 260 264 267 270 273 278 282 284
286 284 285 287 279 267 260 256 256 253 246 241 231 209 193 190 191 187 181 189 205 200 195 201 203 199 196 191 189 193 196 196 194 195 198 201 203 205 206 208 210 212 213 214 215 215 215 214 214 216 216 214 213 212 211 211 214 219 222 223 224 223 223 222 223 226 228 227 226 227 229 234 238 242 246 248 249 252 257 261 263 269 275 280 284 284
289 285 282 280 276 268 260 255 251 241 232 226 211 191 186 188 186 180 177 191 203 196 191 200 203 200 195 190 190 193 194 195 195 196 199 202 204 205 206 208 210 211 212 213 213 213 213 213 214 215 213 212 213 213 211 211 214 218 221 223 224 224 222 221 222 226 228 226 225 227 229 233 240 244 246 245 246 251 255 259 264 272 279 283 285 284
292 288 281 279 274 265 261 257 245 230 221 212 196 183 183 184 179 175 177 193 202 194 190 197 202 200 195 190 191 192 193 195 195 197 200 202 204 205 206 208 210 211 211 211 210 210 211 213 213 212 210 211 213 213 211 211 213 216 219 223 224 223 221 221 223 226 227 226 226 228 228 234 242 244 244 242 245 250 252 259 268 276 281 283 285 285
302 293 287 285 274 263 264 253 233 217 207 197 185 181 181 178 173 172 179 195 199 192 189 196 201 200 195 191 192 193 193 195 196 197 200 203 205 205 206 208 210 211 211 209 208 209 210 212 211 209 208 210 211 211 209 210 214 216 218 222 223 221 219 219 223 226 227 226 227 228 230 236 241 242 241 243 246 249 253 262 271 276 280 283 284 285
315 307 299 293 269 256 238 203 200 196 192 186 179 177 175 170 169 175 186 198 198 191 190 196 199 200 197 192 192 194 194 195 197 198 200 204 206 205 206 207 208 210 210 208 207 208 209 210 209 206 206 207 208 207 206 209 215 216 218 221 220 218 216 218 222 225 226 227 226 227 232 236 239 240 242 244 247 250 256 264 269 274 279 283 284 286
320 320 316 304 232 214 187 174 179 181 183 181 172 168 167 167 171 185 199 201 199 191 191 196 198 201 199 194 192 194 195 196 197 199 201 204 207 208 207 206 207 209 209 208 206 206 208 208 206 205 205 207 208 205 205 210 215 216 217 218 218 216 216 218 222 224 226 226 224 226 232 236 238 241 243 244 248 253 259 263 266 272 277 281 284 284
324 322 327 320 162 182 186 175 174 172 172 175 170 166 169 170 172 192 204 204 200 191 191 196 198 201 202 196 193 195 197 197 197 199 201 204 208 210 209 208 207 208 208 206 205 206 207 206 203 203 207 209 208 206 207 211 214 214 214 215 217 216 215 217 221 224 225 224 223 225 231 235 238 242 243 244 249 255 259 262 264 271 275 278 281 281
343 340 1 147 163 190 189 173 167 166 163 169 171 168 168 165 166 192 204 204 198 188 191 197 199 201 204 198 194 195 198 197 196 198 201 203 206 209 209 210 209 209 208 205 205 205 204 202 201 203 207 208 208 206 207 210 211 212 212 214 216 216 214 216 220 221 221 221 223 227 230 235 239 243 243 244 249 255 258 261 265 271 273 276 280 284
9 25 109 162 181 178 174 165 164 165 161 165 171 168 164 154 151 179 197 201 195 187 190 198 199 202 206 200 194 195 198 197 196 197 200 202 205 206 208 209 210 210 208 205 205 204 203 201 201 203 205 206 207 207 207 209 210 210 211 213 215 215 214 217 221 222 220 220 224 227 230 235 239 240 240 242 249 254 257 261 265 270 273 277 284 294
11 14 18 149 153 155 158 157 165 167 161 166 169 162 153 141 145 170 186 193 193 185 187 199 202 204 206 199 194 194 196 197 197 198 200 202 204 205 206 208 210 209 207 205 204 203 201 202 201 200 201 204 206 206 206 207 208 208 210 213 214 215 214 217 222 224 223 222 226 229 231 234 236 236 237 241 247 251 255 260 265 270 275 279 288 300
356 348 338 136 153 158 158 156 165 165 161 168 168 159 145 135 144 166 179 184 190 183 179 194 202 203 204 198 194 194 195 197 199 199 200 201 202 204 205 208 210 208 206 203 201 201 202 202 200 199 201 204 205 205 204 205 207 209 210 212 214 214 215 217 222 224 224 225 227 229 230 231 231 233 236 240 244 248 254 260 266 271 276 280 292 308
358 358 352 150 156 163 160 155 164 164 158 166 171 166 153 140 143 158 172 177 184 179 173 186 197 198 199 197 194 193 194 197 201 202 202 201 201 203 205 207 209 208 205 202 200 201 202 201 200 200 202 205 205 205 204 205 207 209 211 213 214 215 216 220 223 225 225 225 226 228 228 227 228 233 236 238 241 246 253 260 265 271 275 280 296 305
23 38 110 151 150 156 156 152 164 165 154 164 173 165 143 144 149 158 166 172 174 170 168 176 187 191 191 193 193 192 194 198 202 203 202 200 200 202 204 205 206 206 204 203 201 200 200 200 200 201 203 205 206 205 206 206 208 211 213 215 216 217 220 223 226 227 226 226 227 228 227 226 229 234 236 236 238 244 251 258 263 269 274 282 295 296
47 60 121 158 155 153 158 163 170 166 153 165 172 154 136 149 156 158 166 172 168 165 163 166 176 182 183 187 189 189 193 197 201 203 202 199 199 202 204 203 203 202 202 201 200 199 199 200 201 202 203 205 207 207 208 209 210 212 215 216 217 219 222 225 227 227 227 228 229 229 227 226 230 234 236 235 237 242 249 255 261 266 272 282 292 290
64 69 115 164 168 163 168 177 174 165 154 165 165 145 139 151 151 152 163 171 166 163 161 164 173 176 175 178 180 184 189 192 197 201 201 200 200 202 204 202 201 201 199 198 197 197 199 200 201 202 203 206 209 210 211 211 213 215 216 217 218 220 223 225 225 226 227 228 229 229 227 227 231 235 236 235 237 243 248 253 259 264 270 280 286 284
70 87 128 169 178 170 168 173 169 159 155 165 159 143 141 144 139 144 156 164 164 161 158 166 172 169 166 167 169 176 182 184 190 195 198 201 202 202 203 202 200 200 198 196 195 197 200 201 201 201 203 207 210 212 213 213 215 217 218 219 219 221 224 224 224 224 226 227 227 228 228 228 231 234 235 236 239 245 249 253 258 263 269 276 279 279
334 135 133 166 171 156 160 168 161 146 154 165 158 148 142 134 133 142 153 162 165 161 159 167 170 162 159 160 162 167 171 175 184 186 189 196 198 198 199 200 200 199 197 196 195 198 201 202 202 201 203 207 210 213 214 214 215 217 218 219 219 221 223 223 222 222 223 224 225 226 228 229 231 233 234 236 241 246 251 255 260 264 268 272 275 279
40 140 127 158 161 144 156 168 161 143 153 165 162 156 146 133 135 144 154 162 166 166 163 165 167 163 158 155 156 158 162 171 178 177 179 185 187 189 191 194 196 197 197 196 195 198 201 201 201 200 203 207 210 212 213 213 215 217 218 219 219 220 222 221 221 221 221 222 222 225 228 230 232 233 233 236 241 246 251 256 262 265 267 270 274 279
51 129 146 167 166 146 154 171 171 161 160 167 167 162 147 135 139 147 156 163 168 170 166 165 168 166 158 151 150 152 159 169 173 171 173 175 176 179 182 185 190 194 195 194 194 197 199 200 199 199 203 207 209 211 212 213 215 217 218 219 218 219 220 221 221 220 220 220 221 224 228 231 231 231 231 235 241 246 252 257 263 266 267 269 273 278
44 118 159 174 171 153 157 174 179 177 168 170 172 165 147 138 142 151 160 165 169 172 171 169 166 162 157 151 149 154 162 167 165 165 169 169 170 173 176 180 186 190 191 191 192 195 198 199 200 200 203 206 208 209 211 212 215 217 218 219 218 219 220 220 220 219 219 219 221 224 228 230 230 228 229 235 241 248 253 258 263 265 266 267 271 275
70 129 161 168 164 154 160 174 180 178 170 171 175 169 157 144 144 153 163 167 171 175 175 171 163 156 156 153 152 158 161 160 156 156 162 166 169 173 176 180 184 186 187 188 191 194 197 198 199 200 202 205 206 208 210 212 215 216 218 219 218 218 220 220 220 219 219 219 221 225 227 228 228 226 228 235 242 248 253 258 262 264 265 267 269 273
88 145 161 164 160 152 161 174 180 178 169 171 176 174 167 150 145 154 164 169 172 177 178 174 165 156 157 157 158 160 158 155 155 155 158 163 168 171 173 175 180 184 186 188 191 193 195 197 198 200 202 204 206 209 211 213 215 216 217 217 216 217 218 220 220 219 219 220 221 224 225 225 225 225 228 234 240 247 253 258 259 261 264 266 267 270
102 153 164 168 161 149 159 173 180 179 171 171 175 175 170 152 145 153 163 170 174 179 180 177 169 160 161 162 163 164 162 158 157 160 164 165 165 167 169 171 174 178 183 186 188 191 194 195 197 199 202 204 207 209 212 215 216 217 218 216 215 215 217 219 220 219 220 221 223 224 224 223 222 224 228 233 239 246 252 257 258 260 263 264 266 270
154 169 173 175 165 152 160 172 179 180 174 169 171 171 166 150 142 150 161 169 174 178 180 181 176 167 166 166 166 170 173 168 165 168 169 166 163 167 172 176 176 176 178 182 185 188 191 193 195 198 201 204 206 209 212 215 218 219 220 219 218 217 219 221 222 223 224 224 225 224 222 221 221 225 230 234 239 246 252 256 258 259 261 263 266 270
167 175 178 176 165 158 166 174 178 180 176 170 171 172 165 149 139 147 159 168 174 175 177 183 183 177 173 173 173 176 182 184 181 177 173 167 165 168 172 179 183 182 181 181 184 188 190 192 195 199 202 204 206 209 212 215 218 220 221 222 222 223 225 227 228 229 230 230 229 226 223 222 223 226 231 235 240 247 252 256 258 260 262 264 266 271
154 169 178 177 169 163 169 175 176 173 171 173 176 178 176 169 160 158 164 171 176 177 178 183 187 186 183 181 182 184 190 196 197 192 185 178 173 170 170 176 182 186 187 187 188 190 192 195 197 199 202 205 207 210 213 215 218 220 221 221 222 223 226 229 230 230 231 231 232 230 226 225 227 229 233 237 242 248 253 256 259 260 262 264 267 271
151 164 178 182 179 170 169 169 166 161 162 170 178 182 185 188 189 183 181 185 186 186 188 190 191 192 191 192 194 195 197 203 206 202 196 188 181 176 175 178 182 186 189 190 191 193 196 199 201 202 204 206 209 212 215 218 220 222 223 221 220 219 220 224 228 229 229 229 230 231 230 230 231 233 235 239 243 248 252 256 258 259 259 261 264 268
159 170 183 190 191 179 168 163 161 159 157 162 176 183 185 190 195 194 193 197 200 200 202 205 204 200 199 199 200 199 201 205 208 207 204 197 189 185 185 189 191 193 193 193 193 194 198 201 204 206 207 209 211 214 216 218 221 223 224 224 223 222 222 223 226 228 228 228 227 228 232 234 235 236 238 241 244 247 250 252 254 255 255 257 261 265
156 177 191 194 194 185 174 167 165 164 161 160 173 180 180 184 192 195 197 203 209 210 212 218 218 211 209 207 206 205 197 190 192 194 192 190 189 189 193 197 199 201 202 201 199 198 200 203 205 207 209 210 211 213 214 217 220 223 224 226 227 227 226 227 228 228 228 227 226 229 233 236 237 240 241 243 244 246 247 249 250 251 251 254 258 263
134 168 184 188 191 187 179 174 171 171 171 173 174 175 178 185 191 197 202 205 207 207 210 219 221 217 216 213 210 205 179 169 173 172 171 177 182 188 194 198 200 202 205 206 206 205 205 206 207 209 210 211 211 213 214 217 221 223 225 227 230 231 231 232 232 230 228 227 227 230 234 237 240 242 243 243 244 245 246 246 247 248 250 252 256 260
121 160 181 187 188 187 184 180 177 174 172 174 175 176 181 187 192 197 200 198 197 198 203 215 222 218 213 209 206 196 160 157 164 164 164 171 179 185 192 196 196 199 201 203 206 209 210 212 213 213 214 213 213 213 215 218 222 224 225 228 232 233 234 234 233 230 227 227 228 232 235 238 241 243 244 244 244 245 246 247 247 248 249 251 255 259
124 160 182 187 186 187 189 186 179 174 170 171 174 179 184 186 188 189 183 169 173 183 191 205 212 210 204 200 195 182 157 151 156 163 168 175 182 187 194 198 199 201 203 203 205 209 212 215 217 219 220 219 217 216 218 222 225 226 227 229 232 234 234 234 233 230 229 231 233 236 238 239 240 242 243 242 243 245 247 248 248 249 250 252 255 259
126 151 177 188 189 189 193 191 183 177 175 175 174 178 186 187 179 177 176 155 149 156 151 161 184 198 202 195 159 146 159 159 160 168 176 186 196 202 205 209 214 219 220 218 216 215 214 215 218 221 223 223 220 218 219 224 228 230 231 234 237 238 236 233 231 229 231 235 237 239 239 239 239 240 240 240 241 243 246 248 250 250 252 254 257 258
126 139 163 182 190 193 197 196 190 184 182 181 176 175 186 189 169 166 177 168 141 144 141 146 159 169 173 149 92 109 143 163 177 189 199 207 213 214 214 218 224 227 228 228 226 222 217 213 212 215 219 220 219 216 217 223 231 236 235 234 236 236 230 226 227 229 232 236 238 240 240 239 240 240 239 238 239 242 245 248 251 252 255 257 258 259
124 134 148 167 183 193 199 199 196 193 189 186 183 180 188 191 172 155 167 181 180 175 172 166 164 152 133 117 99 98 116 147 179 198 209 215 217 214 210 212 214 215 218 219 217 214 213 210 210 214 216 217 218 218 219 225 233 237 234 228 224 221 217 216 220 227 233 236 238 240 242 241 241 240 238 238 240 243 245 248 251 254 257 260 260 259
111 124 138 155 172 186 198 202 201 201 197 191 190 189 187 188 180 165 169 187 195 183 187 195 188 179 170 163 159 156 179 198 211 218 219 220 220 216 209 206 204 204 207 209 208 208 210 214 218 221 221 221 222 223 225 227 230 232 228 222 217 215 215 214 215 221 232 237 238 240 242 241 241 241 242 242 244 245 245 247 251 254 259 262 261 258
101 110 124 142 159 174 187 195 201 206 204 200 200 199 191 193 200 197 195 209 213 192 200 217 210 204 206 202 201 233 253 245 238 227 218 221 224 217 208 206 207 209 210 210 208 207 210 214 216 218 221 221 219 218 219 219 219 219 219 217 215 216 218 217 218 225 234 242 243 243 243 243 242 244 245 247 248 247 245 246 250 254 257 259 257 255
104 113 122 133 145 156 164 175 191 202 205 207 211 214 213 214 218 213 209 218 227 219 218 224 220 215 218 218 218 244 250 239 231 222 212 217 222 218 211 206 205 207 208 207 200 193 190 191 193 202 212 212 207 204 203 204 206 209 211 212 214 216 218 222 230 237 242 247 249 248 248 247 244 244 246 250 250 247 244 244 249 252 252 251 249 250
108 114 123 133 142 149 154 163 178 192 201 208 215 220 221 216 214 215 215 220 229 227 224 229 230 225 224 224 216 207 206 201 206 216 219 201 173 194 204 202 197 195 195 195 193 187 182 179 184 195 205 206 202 197 194 194 197 201 204 208 212 216 219 225 234 240 243 246 248 250 254 252 245 242 245 249 248 242 238 240 245 248 246 243 243 246
112 117 124 133 140 149 157 163 173 183 191 201 209 212 211 206 204 208 207 208 219 222 218 227 237 235 233 235 231 229 247 299 153 187 197 187 159 138 158 173 177 181 186 192 197 198 197 195 192 195 202 207 207 204 201 199 199 201 204 208 211 216 221 226 232 236 238 242 245 250 259 258 246 241 245 250 247 239 232 233 238 241 241 241 242 245
Height
5595 5593 5593 5592 5590 5588 5586 5584 5582 5581 5581 5582 5582 5582 5583 5587 5592 5598 5606 5614 5618 5621 5628 5633 5634 5643 5654 5664 5675 5681 5686 5692 5700 5708 5714 5721 5726 5730 5736 5741 5746 5751 5756 5760 5764 5768 5771 5774 5777 5781 5785 5788 5792 5795 5797 5799 5800 5801 5802 5804 5805 5807 5809 5811 5813 5814 5815 5815 5816 5818 5819 5820 5822 5823 5824 5826 5827 5828 5829 5831 5832 5833 5833 5833 5833 5834
5589 5589 5588 5587 5585 5584 5581 5579 5577 5576 5576 5576 5576 5577 5579 5582 5588 5594 5600 5608 5613 5617 5625 5628 5628 5638 5648 5659 5670 5676 5680 5687 5696 5704 5710 5717 5722 5726 5732 5737 5742 5747 5751 5755 5759 5763 5766 5770 5773 5777 5782 5786 5790 5793 5795 5796 5797 5798 5800 5801 5802 5804 5806 5808 5810 5812 5813 5813 5814 5815 5816 5817 5818 5820 5821 5823 5824 5826 5827 5828 5829 5830 5831 5831 5831 5832
5584 5584 5583 5581 5579 5578 5577 5575 5572 5571 5570 5570 5571 5572 5574 5578 5584 5590 5596 5603 5608 5612 5618 5620 5624 5635 5645 5655 5666 5671 5676 5684 5692 5699 5706 5713 5718 5722 5727 5733 5738 5743 5746 5751 5755 5759 5763 5766 5770 5775 5779 5784 5787 5790 5791 5793 5794 5796 5797 5798 5799 5801 5803 5805 5807 5809 5810 5810 5811 5812 5813 5814 5815 5817 5818 5820 5822 5824 5825 5826 5827 5828 5828 5828 5829 5829
5580 5580 5578 5575 5574 5573 5572 5570 5568 5566 5565 5565 5566 5568 5571 5575 5579 5585 5592 5598 5603 5607 5612 5616 5621 5632 5641 5650 5661 5667 5673 5681 5687 5694 5701 5707 5713 5718 5724 5729 5734 5738 5743 5748 5752 5756 5760 5763 5768 5773 5777 5781 5784 5786 5789 5790 5792 5793 5794 5795 5796 5798 5800 5802 5805 5807 5807 5808 5808 5809 5810 5812 5813 5815 5816 5819 5820 5822 5823 5824 5825 5825 5825 5826 5826 5827
5576 5575 5572 5570 5568 5567 5566 5564 5563 5561 5561 5561 5562 5564 5567 5572 5575 5581 5588 5593 5599 5603 5609 5613 5617 5627 5636 5646 5657 5664 5668 5675 5681 5688 5695 5702 5709 5714 5720 5725 5730 5735 5740 5745 5749 5753 5757 5761 5767 5771 5775 5778 5781 5784 5786 5787 5789 5789 5790 5792 5793 5796 5798 5800 5802 5804 5805 5806 5806 5807 5809 5810 5812 5814 5816 5817 5818 5819 5820 5821 5822 5822 5823 5824 5824 5825
5571 5570 5567 5565 5563 5561 5560 5560 5559 5557 5557 5557 5559 5561 5564 5568 5571 5577 5584 5589 5593 5599 5606 5609 5614 5624 5633 5641 5653 5659 5663 5671 5677 5684 5691 5698 5705 5710 5715 5720 5726 5731 5736 5741 5746 5750 5755 5760 5764 5768 5772 5774 5778 5781 5783 5784 5785 5786 5787 5789 5791 5794 5796 5798 5800 5801 5803 5804 5804 5806 5808 5809 5811 5813 5814 5815 5816 5817 5818 5819 5820 5820 5821 5822 5822 5822
5567 5565 5562 5560 5558 5556 5554 5555 5556 5554 5552 5554 5557 5559 5559 5563 5568 5573 5580 5584 5589 5596 5602 5604 5610 5620 5628 5637 5649 5655 5660 5668 5674 5680 5688 5695 5700 5706 5711 5716 5721 5727 5732 5737 5741 5746 5751 5756 5760 5765 5769 5772 5775 5778 5779 5781 5782 5784 5785 5786 5789 5792 5794 5796 5797 5799 5800 5801 5802 5804 5806 5808 5809 5810 5811 5812 5814 5815 5816 5817 5817 5818 5819 5819 5820 5819
5562 5560 5557 5555 5553 5551 5550 5552 5553 5550 5547 5550 5555 5555 5555 5560 5565 5570 5576 5581 5586 5593 5598 5601 5607 5616 5624 5635 5646 5652 5657 5664 5669 5676 5684 5690 5696 5702 5708 5713 5717 5723 5729 5734 5738 5742 5747 5753 5758 5763 5766 5769 5772 5774 5776 5778 5780 5781 5782 5784 5787 5790 5792 5794 5795 5797 5798 5799 5801 5802 5804 5805 5807 5808 5809 5811 5812 5813 5814 5815 5815 5816 5817 5817 5817 5817
5556 5554 5552 5550 5548 5547 5547 5548 5548 5546 5544 5548 5552 5551 5552 5557 5562 5568 5574 5579 5586 5590 5594 5599 5605 5613 5622 5632 5642 5647 5652 5659 5665 5673 5681 5687 5693 5698 5704 5709 5714 5720 5725 5731 5735 5740 5745 5751 5756 5760 5763 5766 5768 5770 5773 5775 5777 5778 5780 5782 5785 5788 5790 5791 5793 5794 5796 5797 5799 5800 5802 5803 5805 5807 5808 5809 5810 5811 5812 5813 5814 5814 5815 5815 5815 5814
5551 5548 5547 5546 5544 5543 5544 5544 5544 5542 5542 5546 5548 5548 5551 5555 5560 5565 5571 5579 5584 5585 5591 5597 5603 5612 5619 5627 5636 5641 5647 5656 5664 5672 5678 5683 5689 5695 5701 5706 5712 5717 5722 5727 5732 5737 5743 5748 5753 5757 5759 5761 5764 5767 5770 5772 5774 5776 5778 5780 5783 5786 5788 5789 5790 5792 5794 5795 5797 5799 5800 5802 5803 5805 5806 5808 5809 5810 5811 5811 5812 5812 5812 5812 5812 5812
5546 5543 5542 5541 5540 5539 5539 5540 5540 5539 5541 5543 5544 5545 5549 5553 5557 5563 5570 5579 5581 5582 5590 5597 5602 5609 5615 5624 5634 5639 5646 5654 5661 5668 5673 5679 5685 5691 5697 5704 5709 5714 5719 5725 5730 5735 5740 5745 5749 5751 5754 5757 5761 5764 5766 5769 5771 5774 5776 5779 5781 5784 5785 5787 5788 5790 5792 5794 5796 5797 5799 5800 5802 5804 5805 5806 5808 5808 5809 5810 5810 5809 5810 5810 5810 5809
5542 5539 5538 5537 5536 5535 5535 5536 5536 5537 5538 5540 5541 5544 5548 5551 5556 5562 5570 5576 5576 5581 5592 5598 5602 5608 5614 5623 5632 5637 5644 5653 5659 5664 5669 5675 5681 5687 5694 5701 5706 5711 5717 5722 5727 5733 5737 5741 5744 5746 5751 5755 5759 5761 5764 5767 5769 5772 5775 5777 5779 5782 5784 5785 5787 5788 5790 5792 5794 5796 5797 5799 5800 5802 5804 5805 5806 5807 5807 5807 5807 5807 5807 5807 5807 5806
5538 5536 5534 5533 5532 5531 5532 5532 5532 5533 5535 5537 5538 5542 5546 5550 5556 5563 5569 5573 5575 5584 5593 5597 5602 5607 5613 5622 5629 5634 5642 5650 5657 5663 5667 5672 5678 5685 5692 5698 5704 5709 5715 5720 5725 5731 5735 5738 5741 5745 5750 5754 5757 5759 5762 5765 5767 5770 5773 5774 5777 5780 5781 5783 5785 5786 5788 5790 5792 5794 5795 5797 5799 5801 5802 5804 5804 5805 5805 5805 5804 5805 5805 5804 5804 5803
5535 5533 5531 5530 5529 5528 5528 5528 5529 5531 5533 5534 5537 5540 5545 5550 5557 5564 5569 5572 5576 5585 5593 5597 5601 5605 5612 5622 5628 5634 5642 5649 5654 5659 5664 5669 5676 5683 5690 5696 5702 5708 5713 5719 5724 5728 5732 5736 5740 5744 5748 5751 5754 5757 5760 5763 5765 5768 5770 5772 5775 5778 5779 5781 5782 5784 5786 5788 5790 5792 5793 5795 5797 5799 5800 5801 5802 5802 5802 5802 5802 5802 5802 5801 5801 5801
5533 5530 5528 5527 5526 5525 5526 5526 5528 5530 5532 5534 5537 5541 5546 5553 5560 5566 5570 5573 5578 5587 5593 5595 5599 5603 5612 5621 5628 5634 5641 5646 5652 5657 5662 5667 5673 5681 5688 5694 5700 5705 5711 5717 5722 5726 5730 5734 5738 5742 5746 5749 5752 5755 5757 5760 5763 5765 5768 5770 5773 5775 5777 5778 5780 5782 5784 5786 5788 5790 5791 5793 5795 5797 5798 5799 5799 5799 5800 5800 5800 5799 5799 5799 5798 5798
5530 5528 5526 5525 5524 5524 5524 5525 5527 5529 5531 5534 5537 5542 5549 5557 5565 5570 5573 5575 5580 5587 5591 5593 5597 5604 5611 5620 5627 5633 5639 5645 5651 5656 5661 5666 5671 5678 5685 5692 5698 5703 5709 5714 5718 5723 5727 5731 5735 5739 5743 5747 5749 5752 5755 5757 5761 5764 5766 5768 5771 5773 5774 5775 5777 5779 5781 5783 5786 5788 5789 5791 5793 5794 5795 5796 5796 5797 5797 5798 5797 5797 5796 5796 5796 5796
5529 5527 5525 5524 5524 5524 5525 5525 5527 5529 5533 5535 5538 5544 5552 5559 5567 5572 5574 5576 5579 5586 5590 5593 5598 5604 5610 5618 5626 5632 5639 5645 5652 5657 5662 5667 5671 5677 5683 5690 5695 5700 5705 5710 5715 5720 5724 5728 5733 5737 5741 5744 5747 5749 5752 5755 5759 5762 5764 5766 5768 5769 5771 5773 5775 5777 5779 5781 5784 5786 5787 5789 5791 5792 5793 5793 5794 5794 5795 5795 5795 5794 5794 5793 5793 5793
5529 5527 5525 5525 5525 5526 5526 5527 5529 5531 5534 5538 5542 5547 5553 5559 5566 5572 5574 5577 5581 5587 5592 5595 5600 5604 5610 5619 5626 5631 5637 5643 5650 5656 5662 5667 5671 5676 5683 5688 5693 5698 5703 5708 5713 5717 5721 5726 5730 5735 5738 5741 5744 5747 5750 5753 5757 5759 5761 5763 5765 5767 5768 5771 5773 5775 5777 5780 5782 5784 5785 5787 5788 5790 5790 5791 5792 5792 5793 5793 5792 5792 5792 5791 5791 5791
5529 5527 5527 5526 5526 5527 5528 5529 5532 5534 5536 5540 5545 5550 5556 5562 5568 5573 5576 5579 5583 5589 5594 5597 5601 5605 5611 5618 5624 5630 5635 5641 5648 5654 5659 5665 5670 5675 5681 5686 5691 5695 5701 5706 5710 5714 5719 5724 5728 5732 5735 5739 5742 5744 5747 5751 5754 5756 5758 5760 5762 5764 5766 5768 5770 5772 5775 5778 5780 5781 5783 5785 5786 5787 5788 5789 5789 5790 5790 5790 5790 5790 5789 5789 5788 5788
5530 5529 5529 5528 5528 5529 5530 5531 5534 5537 5540 5544 5547 5552 5559 5565 5570 5573 5577 5581 5585 5590 5595 5598 5602 5607 5610 5616 5623 5629 5635 5641 5647 5652 5657 5662 5668 5674 5680 5685 5689 5693 5698 5703 5707 5712 5717 5722 5726 5730 5733 5736 5739 5742 5745 5748 5751 5753 5755 5757 5759 5761 5763 5766 5768 5771 5774 5776 5778 5779 5781 5783 5784 5785 5786 5787 5787 5787 5787 5787 5787 5787 5787 5786 5786 5788
5533 5532 5531 5530 5530 5531 5532 5534 5537 5539 5542 5547 5551 5556 5562 5566 5570 5574 5578 5582 5586 5591 5596 5600 5603 5607 5611 5617 5624 5630 5635 5641 5646 5651 5656 5661 5666 5672 5678 5682 5686 5691 5696 5701 5706 5711 5716 5720 5724 5727 5730 5733 5736 5739 5742 5745 5748 5751 5752 5754 5756 5759 5762 5765 5767 5769 5771 5774 5775 5777 5779 5781 5782 5783 5784 5784 5785 5785 5785 5785 5785 5785 5784 5784 5785 5788
5535 5533 5533 5533 5533 5533 5535 5538 5541 5543 5546 5551 5556 5561 5564 5567 5572 5577 5580 5583 5587 5592 5598 5601 5604 5608 5613 5619 5625 5630 5635 5640 5644 5649 5654 5660 5665 5670 5675 5680 5685 5690 5696 5700 5705 5710 5715 5719 5722 5725 5727 5730 5733 5736 5739 5743 5745 5748 5749 5752 5754 5757 5760 5763 5765 5767 5769 5771 5773 5775 5777 5778 5779 5780 5781 5782 5783 5783 5783 5783 5783 5783 5782 5782 5784 5787
5537 5535 5534 5535 5535 5536 5539 5542 5545 5548 5551 5556 5559 5562 5565 5568 5573 5579 5583 5586 5590 5594 5599 5602 5606 5610 5615 5620 5625 5630 5635 5639 5643 5647 5653 5658 5664 5669 5673 5678 5683 5689 5695 5700 5704 5709 5713 5717 5720 5722 5725 5728 5731 5735 5738 5740 5743 5745 5747 5749 5752 5755 5758 5761 5763 5765 5767 5770 5771 5773 5774 5776 5777 5778 5779 5780 5780 5780 5781 5781 5781 5780 5780 5780 5783 5786
5539 5538 5538 5538 5538 5540 5542 5545 5548 5551 5554 5558 5562 5564 5567 5572 5576 5581 5585 5589 5592 5597 5601 5604 5608 5612 5615 5620 5625 5630 5634 5638 5642 5647 5652 5658 5663 5667 5671 5676 5682 5688 5694 5699 5703 5707 5711 5715 5717 5720 5723 5726 5729 5732 5735 5738 5741 5743 5745 5747 5750 5753 5756 5758 5761 5763 5766 5768 5769 5770 5772 5773 5775 5775 5776 5777 5778 5778 5779 5779 5779 5778 5777 5778 5782 5783
5542 5541 5541 5542 5542 5543 5546 5549 5551 5554 5557 5561 5565 5568 5572 5576 5580 5583 5587 5591 5595 5598 5602 5605 5609 5612 5616 5620 5625 5630 5634 5638 5642 5647 5652 5657 5662 5665 5670 5675 5681 5687 5693 5697 5702 5705 5709 5712 5715 5718 5721 5724 5727 5730 5733 5736 5738 5740 5742 5745 5748 5751 5754 5757 5759 5762 5764 5766 5767 5768 5770 5771 5772 5773 5774 5775 5775 5776 5777 5777 5777 5776 5776 5777 5779 5780
5544 5544 5544 5546 5546 5546 5548 5551 5554 5557 5560 5563 5568 5572 5576 5580 5583 5585 5589 5593 5597 5600 5604 5607 5610 5613 5617 5621 5626 5630 5635 5639 5643 5647 5651 5656 5661 5665 5670 5675 5681 5687 5691 5696 5700 5704 5707 5710 5713 5716 5720 5723 5726 5729 5732 5734 5736 5738 5740 5743 5746 5749 5752 5755 5757 5760 5761 5763 5765 5766 5767 5768 5769 5770 5771 5772 5773 5774 5775 5775 5775 5775 5775 5776 5777 5776
5546 5546 5547 5548 5549 5550 5551 5554 5557 5560 5563 5566 5570 5574 5578 5582 5585 5586 5590 5595 5599 5603 5606 5609 5612 5615 5619 5623 5627 5631 5635 5639 5642 5647 5652 5656 5660 5665 5670 5676 5681 5685 5690 5694 5698 5702 5705 5708 5711 5714 5718 5721 5724 5727 5729 5731 5733 5735 5738 5741 5744 5747 5750 5753 5755 5757 5759 5760 5762 5763 5765 5765 5766 5767 5768 5770 5771 5772 5773 5773 5773 5773 5774 5775 5774 5773
5548 5548 5549 5550 5552 5553 5555 5557 5561 5563 5566 5570 5574 5577 5580 5583 5586 5588 5592 5597 5601 5605 5608 5611 5614 5618 5621 5625 5628 5632 5636 5639 5643 5647 5652 5656 5660 5665 5670 5675 5680 5684 5688 5692 5696 5700 5703 5706 5709 5713 5716 5719 5722 5724 5726 5728 5730 5733 5736 5739 5742 5745 5747 5750 5752 5754 5756 5758 5759 5761 5762 5762 5763 5765 5766 5767 5769 5770 5770 5771 5771 5771 5772 5772 5771 5771
5549 5550 5551 5553 5554 5556 5558 5561 5564 5566 5569 5573 5576 5578 5581 5585 5588 5591 5595 5599 5603 5607 5610 5613 5616 5620 5623 5627 5630 5634 5637 5640 5644 5648 5652 5655 5659 5664 5669 5674 5678 5682 5686 5690 5694 5698 5701 5705 5708 5711 5714 5717 5719 5721 5724 5726 5728 5730 5733 5736 5739 5742 5744 5747 5749 5751 5753 5755 5757 5758 5759 5760 5761 5762 5764 5765 5766 5767 5768 5768 5769 5769 5770 5770 5769 5768
5552 5552 5554 5556 5557 5558 5561 5565 5567 5569 5572 5575 5577 5580 5583 5587 5590 5594 5597 5601 5604 5608 5612 5615 5618 5621 5625 5629 5632 5636 5639 5641 5644 5648 5651 5655 5659 5663 5668 5672 5676 5680 5684 5688 5692 5696 5699 5703 5706 5709 5712 5714 5716 5719 5721 5724 5726 5728 5731 5734 5736 5739 5742 5744 5746 5748 5750 5752 5754 5755 5756 5757 5759 5760 5762 5763 5764 5765 5766 5766 5766 5767 5768 5768 5766 5766
5554 5555 5556 5558 5560 5561 5564 5567 5569 5571 5574 5576 5579 5582 5586 5589 5593 5596 5599 5603 5606 5610 5613 5617 5620 5624 5627 5631 5634 5637 5639 5642 5644 5648 5651 5655 5659 5663 5667 5671 5674 5678 5682 5686 5690 5693 5697 5700 5703 5707 5709 5711 5713 5716 5718 5721 5723 5725 5728 5731 5734 5737 5739 5741 5743 5745 5747 5749 5750 5752 5753 5755 5756 5758 5759 5760 5761 5762 5763 5764 5764 5764 5765 5765 5764 5763
5555 5556 5558 5561 5562 5564 5566 5569 5571 5574 5576 5578 5581 5585 5588 5591 5594 5598 5602 5605 5608 5611 5615 5618 5622 5626 5629 5633 5636 5639 5641 5643 5645 5648 5652 5655 5659 5663 5667 5670 5673 5677 5681 5684 5688 5691 5694 5698 5701 5704 5706 5708 5710 5712 5715 5717 5720 5722 5725 5728 5731 5733 5735 5738 5740 5742 5744 5746 5747 5749 5750 5752 5753 5755 5756 5758 5759 5760 5760 5761 5761 5761 5762 5762 5762 5761
5557 5558 5561 5563 5565 5566 5568 5571 5574 5576 5579 5581 5584 5587 5590 5593 5597 5601 5604 5607 5610 5613 5616 5620 5624 5627 5631 5634 5637 5640 5642 5644 5647 5650 5653 5656 5660 5664 5667 5670 5673 5676 5679 5682 5686 5689 5692 5695 5698 5700 5703 5705 5707 5709 5712 5714 5717 5719 5722 5725 5727 5730 5732 5734 5737 5739 5741 5743 5744 5746 5747 5749 5750 5752 5753 5755 5756 5757 5758 5758 5758 5758 5758 5759 5759 5759
5559 5561 5563 5566 5568 5569 5571 5573 5576 5579 5581 5584 5587 5589 5592 5595 5599 5603 5606 5609 5612 5614 5617 5621 5625 5628 5632 5635 5638 5642 5644 5646 5648 5651 5655 5658 5661 5664 5668 5671 5673 5676 5678 5681 5684 5687 5690 5693 5696 5698 5700 5702 5705 5707 5710 5712 5714 5716 5718 5721 5724 5726 5729 5732 5735 5737 5739 5740 5742 5743 5744 5746 5747 5749 5750 5752 5754 5755 5755 5755 5755 5755 5756 5756 5756 5756
5561 5563 5566 5568 5571 5572 5574 5576 5579 5582 5584 5587 5590 5592 5595 5598 5601 5605 5608 5611 5614 5616 5619 5622 5626 5629 5633 5636 5639 5643 5645 5648 5650 5653 5656 5659 5662 5665 5668 5671 5673 5676 5678 5680 5682 5685 5688 5691 5693 5695 5697 5700 5702 5705 5707 5709 5711 5713 5716 5719 5723 5726 5729 5732 5734 5736 5737 5738 5740 5741 5742 5743 5744 5746 5748 5750 5751 5752 5752 5753 5753 5753 5753 5753 5753 5753
5563 5565 5568 5571 5573 5575 5577 5579 5581 5584 5587 5590 5593 5595 5598 5601 5603 5606 5610 5613 5615 5618 5620 5623 5626 5630 5633 5637 5640 5643 5646 5649 5651 5654 5657 5660 5662 5664 5667 5670 5672 5675 5677 5679 5682 5684 5686 5689 5691 5693 5695 5697 5700 5702 5704 5706 5708 5711 5715 5719 5723 5727 5730 5732 5734 5735 5737 5738 5738 5739 5740 5741 5742 5744 5745 5747 5749 5750 5750 5750 5750 5751 5751 5751 5751 5751
5566 5568 5570 5573 5576 5578 5580 5581 5583 5586 5589 5593 5595 5598 5601 5603 5606 5609 5612 5614 5616 5619 5622 5624 5626 5630 5634 5637 5641 5644 5646 5649 5651 5654 5657 5660 5662 5663 5666 5668 5671 5673 5676 5678 5681 5683 5685 5687 5689 5692 5694 5696 5698 5699 5701 5703 5706 5710 5714 5718 5721 5725 5727 5729 5731 5733 5734 5735 5737 5738 5738 5739 5740 5742 5744 5745 5746 5747 5748 5748 5748 5748 5748 5749 5749 5748
5569 5571 5574 5576 5579 5581 5582 5584 5586 5588 5591 5595 5599 5601 5604 5606 5608 5611 5613 5615 5618 5620 5623 5625 5628 5630 5634 5637 5640 5643 5645 5648 5651 5653 5656 5660 5662 5663 5665 5668 5670 5673 5675 5677 5679 5681 5683 5685 5687 5689 5692 5694 5696 5698 5700 5703 5706 5710 5713 5716 5718 5720 5722 5725 5727 5729 5730 5732 5733 5736 5737 5738 5739 5740 5741 5743 5744 5744 5745 5745 5745 5745 5746 5746 5746 5746
5573 5576 5578 5580 5581 5583 5585 5586 5588 5590 5594 5598 5602 5603 5605 5607 5609 5612 5614 5616 5619 5621 5624 5627 5629 5631 5634 5637 5639 5642 5645 5647 5649 5652 5655 5658 5661 5663 5665 5668 5670 5673 5675 5677 5679 5680 5682 5684 5686 5688 5690 5693 5695 5697 5700 5703 5706 5709 5712 5714 5716 5718 5719 5720 5723 5725 5727 5728 5730 5733 5735 5736 5737 5738 5739 5740 5740 5740 5741 5741 5741 5742 5742 5743 5743 5743
5576 5578 5580 5582 5583 5585 5587 5589 5590 5592 5595 5599 5602 5603 5606 5608 5610 5613 5615 5617 5619 5622 5624 5626 5628 5630 5633 5636 5638 5642 5644 5644 5646 5650 5652 5655 5659 5662 5664 5666 5669 5671 5673 5676 5678 5680 5681 5683 5685 5687 5689 5691 5693 5695 5698 5701 5703 5706 5709 5711 5714 5716 5717 5718 5720 5722 5725 5727 5728 5731 5733 5734 5735 5735 5736 5736 5736 5736 5737 5737 5738 5738 5739 5739 5740 5740
5577 5579 5581 5583 5585 5587 5589 5591 5593 5594 5597 5600 5602 5604 5607 5610 5612 5614 5617 5618 5620 5622 5624 5625 5627 5630 5632 5635 5638 5641 5643 5642 5643 5647 5650 5653 5657 5661 5663 5666 5668 5670 5672 5674 5676 5678 5680 5681 5683 5685 5687 5689 5691 5694 5696 5699 5701 5703 5706 5708 5711 5713 5715 5717 5719 5721 5723 5724 5725 5728 5730 5731 5732 5732 5731 5732 5732 5733 5734 5734 5735 5735 5735 5736 5737 5737
5579 5580 5582 5584 5586 5589 5591 5593 5595 5597 5599 5601 5603 5606 5609 5612 5614 5617 5618 5619 5620 5622 5624 5625 5628 5630 5633 5635 5638 5641 5641 5641 5643 5647 5650 5653 5657 5660 5663 5665 5667 5669 5670 5672 5674 5676 5678 5680 5682 5684 5686 5688 5690 5692 5695 5697 5698 5700 5703 5705 5708 5710 5712 5714 5717 5719 5720 5721 5722 5724 5727 5728 5728 5728 5728 5728 5729 5730 5731 5732 5732 5732 5733 5733 5734 5733
5580 5581 5583 5586 5588 5590 5593 5595 5597 5599 5601 5603 5605 5608 5611 5614 5616 5618 5619 5620 5621 5623 5625 5626 5628 5631 5634 5637 5639 5640 5641 5642 5644 5647 5650 5654 5657 5660 5663 5665 5667 5669 5670 5671 5673 5675 5676 5678 5680 5682 5684 5686 5688 5691 5693 5695 5696 5698 5700 5702 5704 5707 5709 5711 5713 5715 5717 5718 5720 5722 5723 5724 5724 5724 5724 5725 5727 5728 5729 5729 5730 5730 5730 5730 5731 5730
5582 5583 5585 5587 5589 5592 5594 5596 5599 5601 5603 5605 5608 5610 5613 5616 5617 5619 5620 5621 5623 5625 5626 5627 5629 5631 5634 5637 5639 5640 5641 5643 5645 5648 5651 5654 5657 5660 5663 5665 5666 5668 5669 5671 5672 5673 5675 5676 5679 5681 5683 5684 5687 5689 5691 5693 5694 5696 5698 5700 5702 5704 5707 5709 5711 5712 5714 5715 5717 5718 5719 5719 5719 5719 5720 5722 5723 5725 5725 5726 5727 5727 5727 5728 5728 5727
5584 5585 5587 5589 5591 5593 5595 5598 5601 5603 5605 5607 5610 5612 5615 5617 5618 5619 5621 5623 5625 5626 5627 5628 5630 5632 5635 5637 5638 5640 5642 5644 5646 5649 5651 5653 5656 5659 5661 5663 5665 5666 5667 5669 5670 5671 5673 5675 5676 5678 5680 5682 5684 5687 5689 5691 5692 5694 5696 5698 5699 5701 5704 5707 5709 5710 5711 5712 5713 5714 5714 5714 5714 5715 5716 5718 5719 5721 5721 5722 5723 5724 5724 5725 5725 5725
5586 5587 5589 5590 5593 5595 5597 5599 5602 5605 5607 5609 5611 5613 5616 5617 5619 5620 5622 5624 5626 5627 5629 5630 5632 5633 5635 5637 5638 5640 5642 5644 5647 5649 5650 5652 5654 5656 5658 5661 5662 5663 5664 5666 5667 5669 5671 5672 5674 5675 5677 5679 5681 5683 5686 5688 5690 5691 5693 5695 5696 5699 5701 5704 5707 5708 5708 5708 5708 5709 5709 5709 5710 5710 5712 5713 5715 5717 5718 5719 5720 5721 5721 5721 5722 5722
5588 5589 5591 5592 5594 5597 5599 5601 5603 5606 5608 5611 5613 5614 5616 5618 5620 5621 5623 5624 5626 5628 5630 5631 5633 5634 5636 5637 5639 5640 5642 5644 5646 5648 5650 5651 5652 5653 5655 5657 5659 5661 5662 5663 5665 5667 5669 5670 5672 5673 5674 5676 5678 5680 5682 5684 5686 5688 5690 5693 5695 5697 5699 5701 5703 5704 5704 5704 5704 5704 5703 5703 5704 5706 5708 5710 5712 5713 5715 5716 5717 5718 5718 5718 5719 5719
5591 5592 5593 5595 5596 5598 5600 5602 5604 5607 5609 5612 5613 5615 5617 5619 5621 5622 5624 5625 5627 5629 5630 5632 5634 5635 5636 5638 5639 5641 5642 5643 5645 5647 5649 5650 5650 5650 5652 5654 5656 5659 5660 5662 5663 5665 5666 5668 5670 5671 5672 5674 5676 5678 5680 5682 5684 5686 5688 5691 5693 5695 5697 5698 5699 5699 5700 5701 5702 5701 5701 5701 5702 5703 5705 5707 5709 5710 5712 5713 5714 5714 5715 5715 5715 5716
5594 5595 5596 5597 5598 5600 5601 5603 5606 5608 5610 5612 5613 5615 5617 5620 5621 5623 5625 5626 5627 5629 5631 5632 5634 5636 5637 5638 5640 5641 5641 5642 5644 5646 5648 5649 5649 5649 5651 5652 5654 5656 5658 5660 5662 5663 5665 5666 5668 5669 5671 5673 5675 5677 5679 5681 5683 5685 5687 5689 5691 5693 5694 5695 5695 5696 5697 5698 5699 5699 5700 5700 5701 5701 5702 5704 5706 5707 5708 5709 5710 5711 5711 5712 5712 5712
5596 5597 5598 5599 5600 5601 5602 5604 5606 5609 5611 5613 5614 5615 5617 5620 5621 5623 5625 5625 5626 5628 5630 5632 5634 5635 5637 5638 5640 5640 5640 5641 5643 5645 5647 5649 5649 5649 5650 5651 5652 5654 5656 5659 5661 5663 5664 5666 5667 5669 5671 5673 5674 5676 5678 5680 5682 5683 5685 5687 5689 5690 5691 5692 5692 5693 5694 5695 5695 5696 5697 5697 5697 5698 5699 5700 5701 5703 5704 5705 5706 5707 5707 5707 5708 5708
5598 5599 5600 5601 5602 5603 5603 5605 5607 5609 5611 5613 5614 5615 5617 5619 5621 5623 5625 5625 5625 5627 5631 5633 5633 5634 5636 5638 5639 5640 5641 5642 5644 5645 5647 5649 5650 5650 5650 5650 5651 5653 5655 5657 5660 5661 5663 5665 5667 5668 5670 5672 5674 5676 5677 5679 5681 5682 5684 5685 5687 5688 5688 5689 5690 5691 5691 5692 5693 5693 5694 5694 5694 5694 5695 5696 5697 5698 5700 5701 5702 5703 5704 5704 5704 5704